FW3590 Weather Reports


time (UTC)temp
C
wind
direction
speed
KPH
gust
KPH
rain 1hr
cm
rain 24hr
cm
rain mn
cm
humidity
%
barometer
mb
20260508220131 10 117 4.8 8.0 0.00 1.93 0.00 83 1019.8
20260508214530 10 109 0.0 8.0 0.00 1.93 1.93 82 1019.7
20260508213035 10 105 4.8 8.0 0.00 1.93 1.93 82 1019.7
20260508211531 10 126 4.8 8.0 0.00 1.93 1.93 83 1019.7
20260508210033 10 107 4.8 8.0 0.00 1.93 1.93 84 1019.6
20260508204527 11 121 1.6 6.4 0.00 1.93 1.93 84 1019.6
20260508203027 11 136 0.0 0.0 0.00 1.93 1.93 84 1019.6
20260508201532 11 133 0.0 0.0 0.00 1.93 1.93 83 1019.6
20260508200028 11 121 0.0 0.0 0.00 1.93 1.93 82 1019.7
20260508194526 11 129 1.6 6.4 0.00 1.93 1.93 81 1019.7
20260508193026 11 155 3.2 9.7 0.00 1.93 1.93 80 1019.4
20260508191524 11 135 3.2 8.0 0.00 1.93 1.93 79 1019.1
20260508190027 11 152 4.8 9.7 0.00 1.93 1.93 79 1019.1
20260508184530 12 152 6.4 11.3 0.00 1.93 1.93 78 1019.0
20260508183021 12 148 0.0 9.7 0.00 1.93 1.93 78 1018.9
20260508181524 12 148 0.0 6.4 0.00 1.93 1.93 77 1018.8
20260508180022 12 186 1.6 9.7 0.00 1.93 1.93 77 1018.8
20260508174529 12 155 6.4 9.7 0.03 1.93 1.93 76 1018.9
20260508173018 12 172 3.2 8.0 0.03 1.93 1.93 75 1019.0
20260508171518 12 147 4.8 11.3 0.03 1.93 1.93 74 1019.0
20260508170019 12 168 3.2 9.7 0.05 1.93 1.93 75 1018.9
20260508164516 12 176 3.2 11.3 0.05 1.93 1.93 75 1018.7
20260508163024 12 171 8.0 12.9 0.08 1.93 1.93 74 1018.8
20260508161524 12 136 8.0 14.5 0.13 1.93 1.93 74 1019.0
20260508160015 12 158 6.4 14.5 0.15 1.91 1.91 76 1018.9
20260508154512 12 180 9.7 17.7 0.13 1.85 1.85 75 1018.9
20260508153016 12 158 11.3 14.5 0.13 1.83 1.83 76 1019.0
20260508151511 12 157 9.7 14.5 0.79 1.80 1.80 75 1018.8
20260508150015 12 173 11.3 16.1 0.84 1.75 1.75 74 1018.8
20260508144509 12 158 9.7 17.7 0.84 1.78 1.75 75 1018.9
20260508143009 12 183 14.5 20.9 0.81 1.75 1.70 75 1019.0
20260508141509 13 172 9.7 22.5 0.15 1.07 1.02 74 1018.9
20260508140015 13 138 9.7 19.3 0.03 0.94 0.89 67 1019.0
20260508134509 13 119 9.7 17.7 0.03 0.94 0.89 66 1018.9
20260508133005 13 111 12.9 19.3 0.05 0.91 0.89 65 1018.9
20260508131503 13 92 9.7 17.7 0.13 0.91 0.89 63 1018.9
20260508130100 13 89 12.9 19.3 0.18 0.91 0.89 63 1018.8
20260508124559 13 78 14.5 25.7 0.23 0.99 0.89 64 1018.8
20260508123105 13 108 11.3 22.5 0.23 0.94 0.84 65 1018.8
20260508121551 13 154 12.9 20.9 0.15 0.86 0.76 66 1019.1
20260508120046 13 106 6.4 16.1 0.36 0.79 0.71 66 1019.1
20260508114549 12 141 8.0 19.3 0.38 1.09 0.66 68 1019.2
20260508113045 13 94 9.7 19.3 0.33 1.02 0.61 66 1019.0
20260508111543 12 102 8.0 20.9 0.33 1.02 0.61 66 1019.1
20260508110037 12 75 1.6 22.5 0.05 0.76 0.33 67 1019.2
20260508104535 12 92 11.3 16.1 0.00 0.86 0.28 66 1019.3
20260508103037 12 90 9.7 14.5 0.00 0.86 0.28 68 1019.3
20260508101528 12 70 6.4 12.9 0.00 0.86 0.28 69 1019.1
20260508100025 12 133 4.8 17.7 0.00 0.86 0.28 69 1019.2
20260508094519 11 123 12.9 22.5 0.05 0.94 0.28 71 1019.3
20260508093018 11 156 9.7 22.5 0.08 0.94 0.28 72 1019.0
20260508091515 11 105 9.7 20.9 0.10 0.94 0.28 73 1019.4
20260508090015 11 132 11.3 22.5 0.15 0.94 0.28 75 1019.5
20260508084508 11 115 11.3 20.9 0.15 0.99 0.23 75 1019.3
20260508083006 10 133 11.3 19.3 0.15 0.99 0.20 76 1019.3
20260508081506 10 98 11.3 22.5 0.13 0.97 0.18 78 1019.3
20260508080059 10 97 14.5 20.9 0.13 0.89 0.13 79 1019.3
20260508074555 9 88 9.7 17.7 0.08 0.86 0.08 81 1019.3
20260508073054 8 73 3.2 14.5 0.05 0.84 0.05 84 1019.3
20260508071552 8 94 9.7 16.1 0.05 0.84 0.05 87 1019.3
20260508070046 7 74 8.0 14.5 0.00 0.79 0.00 90 1019.1
20260508064540 6 90 8.0 12.9 0.00 0.79 0.00 93 1019.0
20260508063047 6 121 4.8 11.3 0.00 0.79 0.00 95 1018.9
20260508061539 5 101 9.7 12.9 0.00 0.79 0.00 95 1018.8
20260508060036 5 77 8.0 12.9 0.00 0.79 0.00 96 1018.7
20260508054533 4 117 6.4 14.5 0.00 0.86 0.00 96 1018.7
20260508053038 3 95 8.0 11.3 0.00 0.86 0.00 96 1018.7
20260508051534 3 129 1.6 9.7 0.00 0.86 0.00 96 1018.6
20260508050030 3 106 4.8 9.7 0.00 0.86 0.00 96 1018.7
20260508044530 2 116 6.4 9.7 0.00 1.19 0.00 96 1018.6
20260508043029 2 111 6.4 9.7 0.00 1.19 0.00 96 1018.5
20260508041530 2 111 6.4 9.7 0.00 1.19 0.00 95 1018.6
20260508040025 1 123 3.2 8.0 0.00 1.19 0.00 95 1018.5
20260508034523 1 107 0.0 6.4 0.00 1.24 0.00 95 1018.4
20260508033023 2 107 3.2 4.8 0.00 1.24 0.00 95 1018.4
20260508031518 2 107 0.0 0.0 0.00 1.24 0.00 94 1018.4
20260508030016 3 116 1.6 3.2 0.00 1.24 0.00 95 1018.5
20260508024530 3 116 0.0 0.0 0.00 1.24 0.00 95 1018.4
20260508023023 3 116 0.0 0.0 0.00 1.24 0.00 95 1018.5
20260508021513 3 116 0.0 0.0 0.00 1.24 0.00 95 1018.6
20260508020013 3 116 0.0 0.0 0.00 1.24 0.00 95 1018.5
20260508014511 3 116 0.0 0.0 0.00 1.24 0.00 95 1018.4
20260508013009 2 116 0.0 1.6 0.00 1.24 0.00 95 1018.3
20260508011507 3 116 0.0 6.4 0.00 1.24 0.00 95 1018.1
20260508010005 3 116 0.0 6.4 0.00 1.24 0.00 95 1018.0
20260508004504 3 116 0.0 0.0 0.00 1.24 0.00 94 1018.0
20260508003105 3 116 0.0 0.0 0.00 1.24 0.00 94 1017.9
20260508001558 4 116 0.0 0.0 0.00 1.24 0.00 95 1017.9
20260508000059 4 116 0.0 0.0 0.00 1.24 0.00 95 1018.0
20260507234555 4 116 0.0 0.0 0.00 1.24 0.00 94 1018.1
20260507233053 4 84 0.0 0.0 0.00 1.24 0.00 94 1018.1
20260507231555 4 225 0.0 0.0 0.00 1.24 0.00 94 1018.0
20260507230052 4 225 0.0 0.0 0.00 1.24 0.00 94 1018.1
20260507224552 5 225 0.0 0.0 0.00 1.27 0.00 94 1018.0
20260507223045 5 225 0.0 0.0 0.00 1.27 0.00 94 1017.9
20260507221543 5 225 0.0 0.0 0.00 1.27 0.00 94 1017.9